Location: Eschentzwiller
(47.7125°N, 7.3981°E)
Time: 00:18:39
(UTC+00:00)

Lacrosse 5 - Pass Details

Date: 27 October 2020
Orbit: 716 x 723 km, 57.0° (Epoch: 06 November)

Event Time Altitude Azimuth Distance (km) Brightness Sun altitude
Rises 19:58:39 0° 306° (NW) 3,126 6.1 -36.8°
Reaches altitude 10° 20:01:05 10° 311° (NW) 2,204 5.1 -37.2°
Enters shadow 20:02:42 20° 317° (NW) 1,627 4.2 -37.4°
